{"data":{"norad_id":57123,"intl_designator":"2023-090Y","name":"STARLINK-6154","alt_names":[],"object_type":"PAYLOAD","status":"ACTIVE","operator":null,"country":"US","launch_date":"2023-06-23","launch_site_code":"AFETR","launch_vehicle":null,"mission":null,"orbit_class":"UNKNOWN","rcs_meters":null,"size_class":null,"mass_kg":null,"dimensions":null,"purposes":["comms"],"wikipedia_slug":null,"has_3d_model":false,"image_url":null,"decayed_at":null,"tle_current":{"epoch":"2026-09-20T16:20:56.059296Z","epoch_age_seconds":105345,"freshness":"FRESH","line1":"1 57123U 23090Y   26263.68120439  .00000738  00000+0  36340-4 0  9991","line2":"2 57123  43.0013 260.3570 0001234 271.4176  88.6534 15.27576948179962","mean_motion":15.27576948,"eccentricity":0.0001234,"inclination_deg":43.0013,"raan_deg":260.357,"arg_perigee_deg":271.4176,"mean_anomaly_deg":88.6534,"bstar":3.634e-5,"rev_number":17996,"period_min":94.266937052522,"perigee_km":482.21156334884,"apogee_km":483.9049063328,"semimajor_km":6861.1952348408,"source":"CELESTRAK","updated_at":"2026-09-21T09:00:33.562596Z"}}}